Year,Month,Day,Hour,Minute,Value (Times are PST for temperature in C)
2019,11,19,00,00,8.90
2019,11,19,00,01,8.90
2019,11,19,00,02,8.90
2019,11,19,00,03,8.90
2019,11,19,00,04,8.90
2019,11,19,00,05,8.90
2019,11,19,00,06,8.90
2019,11,19,00,07,8.90
2019,11,19,00,08,8.90
2019,11,19,00,09,8.90
2019,11,19,00,10,8.90
2019,11,19,00,11,8.90
2019,11,19,00,12,8.90
2019,11,19,00,13,8.90
2019,11,19,00,14,8.90
2019,11,19,00,15,8.90
2019,11,19,00,16,8.90
2019,11,19,00,17,8.90
2019,11,19,00,18,8.90
2019,11,19,00,19,8.90
2019,11,19,00,20,8.90
2019,11,19,00,21,8.90
2019,11,19,00,22,8.90
2019,11,19,00,23,8.90
2019,11,19,00,24,8.90
2019,11,19,00,25,8.90
2019,11,19,00,26,8.90
2019,11,19,00,27,8.90
2019,11,19,00,28,8.90
2019,11,19,00,29,8.90
2019,11,19,00,30,8.90
2019,11,19,00,31,8.90
2019,11,19,00,32,8.90
2019,11,19,00,33,8.90
2019,11,19,00,34,8.90
2019,11,19,00,35,8.90
2019,11,19,00,36,8.90
2019,11,19,00,37,8.90
2019,11,19,00,38,8.90
2019,11,19,00,39,8.90
2019,11,19,00,40,8.80
2019,11,19,00,41,8.80
2019,11,19,00,42,8.80
2019,11,19,00,43,8.80
2019,11,19,00,44,8.80
2019,11,19,00,45,8.80
2019,11,19,00,46,8.80
2019,11,19,00,47,8.80
2019,11,19,00,48,8.70
2019,11,19,00,49,8.70
2019,11,19,00,50,8.70
2019,11,19,00,51,8.70
2019,11,19,00,52,8.70
2019,11,19,00,53,8.60
2019,11,19,00,54,8.60
2019,11,19,00,55,8.60
2019,11,19,00,56,8.60
2019,11,19,00,57,8.60
2019,11,19,00,58,8.60
2019,11,19,00,59,8.60
2019,11,19,01,00,8.50
2019,11,19,01,01,8.50
2019,11,19,01,02,8.50
2019,11,19,01,03,8.50
2019,11,19,01,04,8.50
2019,11,19,01,05,8.50
2019,11,19,01,06,8.50
2019,11,19,01,07,8.50
2019,11,19,01,08,8.50
2019,11,19,01,09,8.50
2019,11,19,01,10,8.50
2019,11,19,01,11,8.50
2019,11,19,01,12,8.50
2019,11,19,01,13,8.50
2019,11,19,01,14,8.50
2019,11,19,01,15,8.50
2019,11,19,01,16,8.40
2019,11,19,01,17,8.40
2019,11,19,01,18,8.40
2019,11,19,01,19,8.40
2019,11,19,01,20,8.40
2019,11,19,01,21,8.40
2019,11,19,01,22,8.40
2019,11,19,01,23,8.40
2019,11,19,01,24,8.40
2019,11,19,01,25,8.40
2019,11,19,01,26,8.30
2019,11,19,01,27,8.30
2019,11,19,01,28,8.30
2019,11,19,01,29,8.30
2019,11,19,01,30,8.30
2019,11,19,01,31,8.30
2019,11,19,01,32,8.30
2019,11,19,01,33,8.30
2019,11,19,01,34,8.30
2019,11,19,01,35,8.30
2019,11,19,01,36,8.30
2019,11,19,01,37,8.30
2019,11,19,01,38,8.30
2019,11,19,01,39,8.30
2019,11,19,01,40,8.20
2019,11,19,01,41,8.20
2019,11,19,01,42,8.20
2019,11,19,01,43,8.20
2019,11,19,01,44,8.20
2019,11,19,01,45,8.20
2019,11,19,01,46,8.20
2019,11,19,01,47,8.20
2019,11,19,01,48,8.20
2019,11,19,01,49,8.20
2019,11,19,01,50,8.20
2019,11,19,01,51,8.20
2019,11,19,01,52,8.20
2019,11,19,01,53,8.20
2019,11,19,01,54,8.20
2019,11,19,01,55,8.20
2019,11,19,01,56,8.20
2019,11,19,01,57,8.20
2019,11,19,01,58,8.20
2019,11,19,01,59,8.20
2019,11,19,02,00,8.20
2019,11,19,02,01,8.20
2019,11,19,02,02,8.20
2019,11,19,02,03,8.20
2019,11,19,02,04,8.20
2019,11,19,02,05,8.20
2019,11,19,02,06,8.20
2019,11,19,02,07,8.20
2019,11,19,02,08,8.20
2019,11,19,02,09,8.20
2019,11,19,02,10,8.20
2019,11,19,02,11,8.20
2019,11,19,02,12,8.20
2019,11,19,02,13,8.20
2019,11,19,02,14,8.30
2019,11,19,02,15,8.20
2019,11,19,02,16,8.20
2019,11,19,02,17,8.20
2019,11,19,02,18,8.30
2019,11,19,02,19,8.30
2019,11,19,02,20,8.20
2019,11,19,02,21,8.30
2019,11,19,02,22,8.20
2019,11,19,02,23,8.20
2019,11,19,02,24,8.20
2019,11,19,02,25,8.20
2019,11,19,02,26,8.30
2019,11,19,02,27,8.30
2019,11,19,02,28,8.30
2019,11,19,02,29,8.30
2019,11,19,02,30,8.30
2019,11,19,02,31,8.30
2019,11,19,02,32,8.30
2019,11,19,02,33,8.30
2019,11,19,02,34,8.30
2019,11,19,02,35,8.30
2019,11,19,02,36,8.30
2019,11,19,02,37,8.30
2019,11,19,02,38,8.30
2019,11,19,02,39,8.30
2019,11,19,02,40,8.30
2019,11,19,02,41,8.30
2019,11,19,02,42,8.30
2019,11,19,02,43,8.30
2019,11,19,02,44,8.30
2019,11,19,02,45,8.30
2019,11,19,02,46,8.30
2019,11,19,02,47,8.30
2019,11,19,02,48,8.30
2019,11,19,02,49,8.30
2019,11,19,02,50,8.30
2019,11,19,02,51,8.30
2019,11,19,02,52,8.30
2019,11,19,02,53,8.30
2019,11,19,02,54,8.30
2019,11,19,02,55,8.30
2019,11,19,02,56,8.30
2019,11,19,02,57,8.30
2019,11,19,02,58,8.30
2019,11,19,02,59,8.30
2019,11,19,03,00,8.30
2019,11,19,03,01,8.30
2019,11,19,03,02,8.30
2019,11,19,03,03,8.30
2019,11,19,03,04,8.30
2019,11,19,03,05,8.30
2019,11,19,03,06,8.30
2019,11,19,03,07,8.30
2019,11,19,03,08,8.30
2019,11,19,03,09,8.30
2019,11,19,03,10,8.30
2019,11,19,03,11,8.30
2019,11,19,03,12,8.20
2019,11,19,03,13,8.20
2019,11,19,03,14,8.20
2019,11,19,03,15,8.20
2019,11,19,03,16,8.20
2019,11,19,03,17,8.20
2019,11,19,03,18,8.20
2019,11,19,03,19,8.20
2019,11,19,03,20,8.20
2019,11,19,03,21,8.20
2019,11,19,03,22,8.20
2019,11,19,03,23,8.20
2019,11,19,03,24,8.20
2019,11,19,03,25,8.20
2019,11,19,03,26,8.20
2019,11,19,03,27,8.20
2019,11,19,03,28,8.20
2019,11,19,03,29,8.20
2019,11,19,03,30,8.20
2019,11,19,03,31,8.10
2019,11,19,03,32,8.10
2019,11,19,03,33,8.10
2019,11,19,03,34,8.10
2019,11,19,03,35,8.10
2019,11,19,03,36,8.10
2019,11,19,03,37,8.10
2019,11,19,03,38,8.10
2019,11,19,03,39,8.10
2019,11,19,03,40,8.10
2019,11,19,03,41,8.10
2019,11,19,03,42,8.10
2019,11,19,03,43,8.10
2019,11,19,03,44,8.10
2019,11,19,03,45,8.10
2019,11,19,03,46,8.10
2019,11,19,03,47,8.10
2019,11,19,03,48,8.10
2019,11,19,03,49,8.10
2019,11,19,03,50,8.10
2019,11,19,03,51,8.10
2019,11,19,03,52,8.00
2019,11,19,03,53,8.10
2019,11,19,03,54,8.00
2019,11,19,03,55,8.00
2019,11,19,03,56,8.00
2019,11,19,03,57,8.00
2019,11,19,03,58,8.00
2019,11,19,03,59,8.00
2019,11,19,04,00,8.00
2019,11,19,04,01,8.00
2019,11,19,04,02,8.00
2019,11,19,04,03,7.90
2019,11,19,04,04,7.90
2019,11,19,04,05,7.90
2019,11,19,04,06,7.90
2019,11,19,04,07,7.90
2019,11,19,04,08,7.90
2019,11,19,04,09,7.90
2019,11,19,04,10,7.90
2019,11,19,04,11,7.90
2019,11,19,04,12,7.80
2019,11,19,04,13,7.80
2019,11,19,04,14,7.80
2019,11,19,04,15,7.80
2019,11,19,04,16,7.80
2019,11,19,04,17,7.80
2019,11,19,04,18,7.80
2019,11,19,04,19,7.80
2019,11,19,04,20,7.80
2019,11,19,04,21,7.80
2019,11,19,04,22,7.80
2019,11,19,04,23,7.70
2019,11,19,04,24,7.70
2019,11,19,04,25,7.70
2019,11,19,04,26,7.70
2019,11,19,04,27,7.70
2019,11,19,04,28,7.70
2019,11,19,04,29,7.70
2019,11,19,04,30,7.70
2019,11,19,04,31,7.70
2019,11,19,04,32,7.70
2019,11,19,04,33,7.70
2019,11,19,04,34,7.70
2019,11,19,04,35,7.70
2019,11,19,04,36,7.70
2019,11,19,04,37,7.70
2019,11,19,04,38,7.70
2019,11,19,04,39,7.70
2019,11,19,04,40,7.60
2019,11,19,04,41,7.60
2019,11,19,04,42,7.60
2019,11,19,04,43,7.60
2019,11,19,04,44,7.60
2019,11,19,04,45,7.60
2019,11,19,04,46,7.60
2019,11,19,04,47,7.60
2019,11,19,04,48,7.60
2019,11,19,04,49,7.60
2019,11,19,04,50,7.60
2019,11,19,04,51,7.50
2019,11,19,04,52,7.50
2019,11,19,04,53,7.50
2019,11,19,04,54,7.50
2019,11,19,04,55,7.50
2019,11,19,04,56,7.50
2019,11,19,04,57,7.50
2019,11,19,04,58,7.50
2019,11,19,04,59,7.50
2019,11,19,05,00,7.50
2019,11,19,05,01,7.50
2019,11,19,05,02,7.50
2019,11,19,05,03,7.50
2019,11,19,05,04,7.50
2019,11,19,05,05,7.50
2019,11,19,05,06,7.40
2019,11,19,05,07,7.40
2019,11,19,05,08,7.40
2019,11,19,05,09,7.40
2019,11,19,05,10,7.40
2019,11,19,05,11,7.40
2019,11,19,05,12,7.40
2019,11,19,05,13,7.40
2019,11,19,05,14,7.40
2019,11,19,05,15,7.40
2019,11,19,05,16,7.40
2019,11,19,05,17,7.40
2019,11,19,05,18,7.40
2019,11,19,05,19,7.40
2019,11,19,05,20,7.40
2019,11,19,05,21,7.40
2019,11,19,05,22,7.40
2019,11,19,05,23,7.40
2019,11,19,05,24,7.40
2019,11,19,05,25,7.40
2019,11,19,05,26,7.40
2019,11,19,05,27,7.40
2019,11,19,05,28,7.40
2019,11,19,05,29,7.40
2019,11,19,05,30,7.40
2019,11,19,05,31,7.40
2019,11,19,05,32,7.40
2019,11,19,05,33,7.40
2019,11,19,05,34,7.40
2019,11,19,05,35,7.40
2019,11,19,05,36,7.40
2019,11,19,05,37,7.40
2019,11,19,05,38,7.40
2019,11,19,05,39,7.40
2019,11,19,05,40,7.40
2019,11,19,05,41,7.40
2019,11,19,05,42,7.40
2019,11,19,05,43,7.40
2019,11,19,05,44,7.40
2019,11,19,05,45,7.40
2019,11,19,05,46,7.40
2019,11,19,05,47,7.40
2019,11,19,05,48,7.40
2019,11,19,05,49,7.40
2019,11,19,05,50,7.40
2019,11,19,05,51,7.40
2019,11,19,05,52,7.40
2019,11,19,05,53,7.40
2019,11,19,05,54,7.40
2019,11,19,05,55,7.40
2019,11,19,05,56,7.40
2019,11,19,05,57,7.40
2019,11,19,05,58,7.40
2019,11,19,05,59,7.40
2019,11,19,06,00,7.50
2019,11,19,06,01,7.50
2019,11,19,06,02,7.50
2019,11,19,06,03,7.50
2019,11,19,06,04,7.50
2019,11,19,06,05,7.50
2019,11,19,06,06,7.50
2019,11,19,06,07,7.50
2019,11,19,06,08,7.50
2019,11,19,06,09,7.60
2019,11,19,06,10,7.60
2019,11,19,06,11,7.60
2019,11,19,06,12,7.60
2019,11,19,06,13,7.60
2019,11,19,06,14,7.60
2019,11,19,06,15,7.60
2019,11,19,06,16,7.60
2019,11,19,06,17,7.60
2019,11,19,06,18,7.60
2019,11,19,06,19,7.60
2019,11,19,06,20,7.50
2019,11,19,06,21,7.60
2019,11,19,06,22,7.60
2019,11,19,06,23,7.60
2019,11,19,06,24,7.60
2019,11,19,06,25,7.60
2019,11,19,06,26,7.60
2019,11,19,06,27,7.60
2019,11,19,06,28,7.60
2019,11,19,06,29,7.60
2019,11,19,06,30,7.60
2019,11,19,06,31,7.60
2019,11,19,06,32,7.70
2019,11,19,06,33,7.70
2019,11,19,06,34,7.70
2019,11,19,06,35,7.70
2019,11,19,06,36,7.70
2019,11,19,06,37,7.70
2019,11,19,06,38,7.70
2019,11,19,06,39,7.70
2019,11,19,06,40,7.70
2019,11,19,06,41,7.70
2019,11,19,06,42,7.70
2019,11,19,06,43,7.70
2019,11,19,06,44,7.70
2019,11,19,06,45,7.70
2019,11,19,06,46,7.70
2019,11,19,06,47,7.70
2019,11,19,06,48,7.70
2019,11,19,06,49,7.80
2019,11,19,06,50,7.80
2019,11,19,06,51,7.80
2019,11,19,06,52,7.80
2019,11,19,06,53,7.80
2019,11,19,06,54,7.80
2019,11,19,06,55,7.80
2019,11,19,06,56,7.80
2019,11,19,06,57,7.80
2019,11,19,06,58,7.80
2019,11,19,06,59,7.80
2019,11,19,07,00,7.80
2019,11,19,07,01,7.80
2019,11,19,07,02,7.80
2019,11,19,07,03,7.80
2019,11,19,07,04,7.80
2019,11,19,07,05,7.80
2019,11,19,07,06,7.80
2019,11,19,07,07,7.80
2019,11,19,07,08,7.80
2019,11,19,07,09,7.80
2019,11,19,07,10,7.80
2019,11,19,07,11,7.80
2019,11,19,07,12,7.80
2019,11,19,07,13,7.80
2019,11,19,07,14,7.80
2019,11,19,07,15,7.80
2019,11,19,07,16,7.80
2019,11,19,07,17,7.80
2019,11,19,07,18,7.80
2019,11,19,07,19,7.80
2019,11,19,07,20,7.80
2019,11,19,07,21,7.80
2019,11,19,07,22,7.80
2019,11,19,07,23,7.80
2019,11,19,07,24,7.90
2019,11,19,07,25,7.90
2019,11,19,07,26,7.90
2019,11,19,07,27,7.90
2019,11,19,07,28,7.90
2019,11,19,07,29,7.90
2019,11,19,07,30,7.90
2019,11,19,07,31,7.90
2019,11,19,07,32,7.90
2019,11,19,07,33,7.90
2019,11,19,07,34,7.90
2019,11,19,07,35,7.90
2019,11,19,07,36,7.90
2019,11,19,07,37,7.90
2019,11,19,07,38,8.00
2019,11,19,07,39,8.00
2019,11,19,07,40,8.00
2019,11,19,07,41,8.00
2019,11,19,07,42,8.00
2019,11,19,07,43,8.00
2019,11,19,07,44,8.00
2019,11,19,07,45,8.00
2019,11,19,07,46,8.00
2019,11,19,07,47,8.00
2019,11,19,07,48,8.00
2019,11,19,07,49,8.00
2019,11,19,07,50,8.00
2019,11,19,07,51,8.00
2019,11,19,07,52,8.00
2019,11,19,07,53,8.00
2019,11,19,07,54,8.00
2019,11,19,07,55,8.00
2019,11,19,07,56,8.10
2019,11,19,07,57,8.10
2019,11,19,07,58,8.10
2019,11,19,07,59,8.10
2019,11,19,08,00,8.10
2019,11,19,08,01,8.10
2019,11,19,08,02,8.10
2019,11,19,08,03,8.10
2019,11,19,08,04,8.10
2019,11,19,08,05,8.20
2019,11,19,08,06,8.20
2019,11,19,08,07,8.20
2019,11,19,08,08,8.20
2019,11,19,08,09,8.20
2019,11,19,08,10,8.20
2019,11,19,08,11,8.20
2019,11,19,08,12,8.20
2019,11,19,08,13,8.20
2019,11,19,08,14,8.20
2019,11,19,08,15,8.30
2019,11,19,08,16,8.20
2019,11,19,08,17,8.30
2019,11,19,08,18,8.30
2019,11,19,08,19,8.30
2019,11,19,08,20,8.30
2019,11,19,08,21,8.30
2019,11,19,08,22,8.30
2019,11,19,08,23,8.30
2019,11,19,08,24,8.30
2019,11,19,08,25,8.30
2019,11,19,08,26,8.30
2019,11,19,08,27,8.30
2019,11,19,08,28,8.30
2019,11,19,08,29,8.30
2019,11,19,08,30,8.30
2019,11,19,08,31,8.30
2019,11,19,08,32,8.30
2019,11,19,08,33,8.30
2019,11,19,08,34,8.40
2019,11,19,08,35,8.40
2019,11,19,08,36,8.40
2019,11,19,08,37,8.40
2019,11,19,08,38,8.40
2019,11,19,08,39,8.40
2019,11,19,08,40,8.40
2019,11,19,08,41,8.40
2019,11,19,08,42,8.40
2019,11,19,08,43,8.40
2019,11,19,08,44,8.40
2019,11,19,08,45,8.40
2019,11,19,08,46,8.40
2019,11,19,08,47,8.40
2019,11,19,08,48,8.40
2019,11,19,08,49,8.40
2019,11,19,08,50,8.40
2019,11,19,08,51,8.40
2019,11,19,08,52,8.40
2019,11,19,08,53,8.40
2019,11,19,08,54,8.40
2019,11,19,08,55,8.40
2019,11,19,08,56,8.40
2019,11,19,08,57,8.40
2019,11,19,08,58,8.40
2019,11,19,08,59,8.40
2019,11,19,09,00,8.50
2019,11,19,09,01,8.40
2019,11,19,09,02,8.50
2019,11,19,09,03,8.50
2019,11,19,09,04,8.50
2019,11,19,09,05,8.50
2019,11,19,09,06,8.50
2019,11,19,09,07,8.50
2019,11,19,09,08,8.50
2019,11,19,09,09,8.50
2019,11,19,09,10,8.50
2019,11,19,09,11,8.50
2019,11,19,09,12,8.50
2019,11,19,09,13,8.50
2019,11,19,09,14,8.50
2019,11,19,09,15,8.50
2019,11,19,09,16,8.50
2019,11,19,09,17,8.60
2019,11,19,09,18,8.60
2019,11,19,09,19,8.60
2019,11,19,09,20,8.60
2019,11,19,09,21,8.60
2019,11,19,09,22,8.60
2019,11,19,09,23,8.60
2019,11,19,09,24,8.60
2019,11,19,09,25,8.60
2019,11,19,09,26,8.60
2019,11,19,09,27,8.60
2019,11,19,09,28,8.60
2019,11,19,09,29,8.60
2019,11,19,09,30,8.60
2019,11,19,09,31,8.60
2019,11,19,09,32,8.60
2019,11,19,09,33,8.70
2019,11,19,09,34,8.70
2019,11,19,09,35,8.70
2019,11,19,09,36,8.70
2019,11,19,09,37,8.70
2019,11,19,09,38,8.70
2019,11,19,09,39,8.70
2019,11,19,09,40,8.70
2019,11,19,09,41,8.70
2019,11,19,09,42,8.70
2019,11,19,09,43,8.70
2019,11,19,09,44,8.70
2019,11,19,09,45,8.70
2019,11,19,09,46,8.70
2019,11,19,09,47,8.70
2019,11,19,09,48,8.80
2019,11,19,09,49,8.80
2019,11,19,09,50,8.80
2019,11,19,09,51,8.80
2019,11,19,09,52,8.80
2019,11,19,09,53,8.80
2019,11,19,09,54,8.80
2019,11,19,09,55,8.80
2019,11,19,09,56,8.80
2019,11,19,09,57,8.90
2019,11,19,09,58,8.90
2019,11,19,09,59,8.90
2019,11,19,10,00,8.90
2019,11,19,10,01,8.90
2019,11,19,10,02,8.90
2019,11,19,10,03,8.90
2019,11,19,10,04,8.90
2019,11,19,10,05,8.90
2019,11,19,10,06,8.90
2019,11,19,10,07,8.90
2019,11,19,10,08,9.00
2019,11,19,10,09,9.00
2019,11,19,10,10,9.00
2019,11,19,10,11,9.00
2019,11,19,10,12,9.00
2019,11,19,10,13,9.00
2019,11,19,10,14,9.00
2019,11,19,10,15,9.00
2019,11,19,10,16,9.10
2019,11,19,10,17,9.10
2019,11,19,10,18,9.10
2019,11,19,10,19,9.10
2019,11,19,10,20,9.10
2019,11,19,10,21,9.10
2019,11,19,10,22,9.10
2019,11,19,10,23,9.10
2019,11,19,10,24,9.10
2019,11,19,10,25,9.10
2019,11,19,10,26,9.10
2019,11,19,10,27,9.10
2019,11,19,10,28,9.10
2019,11,19,10,29,9.20
2019,11,19,10,30,9.20
2019,11,19,10,31,9.20
2019,11,19,10,32,9.20
2019,11,19,10,33,9.20
2019,11,19,10,34,9.20
2019,11,19,10,35,9.20
2019,11,19,10,36,9.20
2019,11,19,10,37,9.20
2019,11,19,10,38,9.20
2019,11,19,10,39,9.20
2019,11,19,10,40,9.20
2019,11,19,10,41,9.20
2019,11,19,10,42,9.20
2019,11,19,10,43,9.30
2019,11,19,10,44,9.30
2019,11,19,10,45,9.30
2019,11,19,10,46,9.30
2019,11,19,10,47,9.30
2019,11,19,10,48,9.30
2019,11,19,10,49,9.30
2019,11,19,10,50,9.40
2019,11,19,10,51,9.40
2019,11,19,16,13,9.80
2019,11,19,16,14,9.80
2019,11,19,16,15,9.80
2019,11,19,16,16,9.80
2019,11,19,16,17,9.80
2019,11,19,16,18,9.80
2019,11,19,16,19,9.80
2019,11,19,16,20,9.80
2019,11,19,16,21,9.80
2019,11,19,16,22,9.80
2019,11,19,16,23,9.80
2019,11,19,16,24,9.80
2019,11,19,16,25,9.70
2019,11,19,16,26,9.70
2019,11,19,16,27,9.70
2019,11,19,16,28,9.70
2019,11,19,16,29,9.70
2019,11,19,16,30,9.60
2019,11,19,16,31,9.60
2019,11,19,16,32,9.60
2019,11,19,16,33,9.60
2019,11,19,16,34,9.60
2019,11,19,16,35,9.50
2019,11,19,16,36,9.50
2019,11,19,16,37,9.50
2019,11,19,16,38,9.40
2019,11,19,16,39,9.40
2019,11,19,16,40,9.30
2019,11,19,16,41,9.30
2019,11,19,16,42,9.20
2019,11,19,16,43,9.20
2019,11,19,16,44,9.20
2019,11,19,16,45,9.10
2019,11,19,16,46,9.10
2019,11,19,16,47,9.10
2019,11,19,16,48,9.00
2019,11,19,16,49,9.00
2019,11,19,16,50,9.00
2019,11,19,16,51,9.00
2019,11,19,16,52,9.00
2019,11,19,16,53,9.00
2019,11,19,16,54,9.00
2019,11,19,16,55,9.00
2019,11,19,16,56,9.00
2019,11,19,16,57,9.00
2019,11,19,16,58,9.00
2019,11,19,16,59,9.00
2019,11,19,17,00,9.00
2019,11,19,17,01,9.00
2019,11,19,17,02,9.00
2019,11,19,17,03,9.00
2019,11,19,17,04,9.00
2019,11,19,17,05,9.10
2019,11,19,17,06,9.10
2019,11,19,17,07,9.10
2019,11,19,17,08,9.10
2019,11,19,17,09,9.10
2019,11,19,17,10,9.10
2019,11,19,17,11,9.10
2019,11,19,17,12,9.10
2019,11,19,17,13,9.10
2019,11,19,17,14,9.10
2019,11,19,17,15,9.10
2019,11,19,17,16,9.10
2019,11,19,17,17,9.10
2019,11,19,17,18,9.10
2019,11,19,17,19,9.00
2019,11,19,17,20,9.00
2019,11,19,17,21,9.00
2019,11,19,17,22,8.90
2019,11,19,17,23,8.90
2019,11,19,17,24,8.90
2019,11,19,17,25,8.90
2019,11,19,17,26,8.90
2019,11,19,17,27,8.90
2019,11,19,17,28,8.90
2019,11,19,17,29,8.90
2019,11,19,17,30,8.90
2019,11,19,17,31,8.90
2019,11,19,17,32,8.90
2019,11,19,17,33,8.90
2019,11,19,17,34,8.90
2019,11,19,17,35,8.90
2019,11,19,17,36,8.90
2019,11,19,17,37,8.90
2019,11,19,17,38,8.90
2019,11,19,17,39,8.90
2019,11,19,17,40,8.90
2019,11,19,17,41,8.90
2019,11,19,17,42,8.80
2019,11,19,17,43,8.80
2019,11,19,17,44,8.80
2019,11,19,17,45,8.80
2019,11,19,17,46,8.80
2019,11,19,17,47,8.80
2019,11,19,17,48,8.70
2019,11,19,17,49,8.70
2019,11,19,17,50,8.70
2019,11,19,17,51,8.70
2019,11,19,17,52,8.70
2019,11,19,17,53,8.70
2019,11,19,17,54,8.70
2019,11,19,17,55,8.60
2019,11,19,17,56,8.60
2019,11,19,17,57,8.50
2019,11,19,17,58,8.40
2019,11,19,17,59,8.40
2019,11,19,18,00,8.30
2019,11,19,18,01,8.30
2019,11,19,18,02,8.30
2019,11,19,18,03,8.30
2019,11,19,18,04,8.30
2019,11,19,18,05,8.30
2019,11,19,18,06,8.30
2019,11,19,18,07,8.30
2019,11,19,18,08,8.30
2019,11,19,18,09,8.30
2019,11,19,18,10,8.30
2019,11,19,18,11,8.20
2019,11,19,18,12,8.20
2019,11,19,18,13,8.20
2019,11,19,18,14,8.20
2019,11,19,18,15,8.20
2019,11,19,18,16,8.20
2019,11,19,18,17,8.20
2019,11,19,18,18,8.20
2019,11,19,18,19,8.20
2019,11,19,18,20,8.10
2019,11,19,18,21,8.10
2019,11,19,18,22,8.10
2019,11,19,18,23,8.20
2019,11,19,18,24,8.10
2019,11,19,18,25,8.10
2019,11,19,18,26,8.10
2019,11,19,18,27,8.10
2019,11,19,18,28,8.10
2019,11,19,18,29,8.00
2019,11,19,18,30,8.00
2019,11,19,18,31,8.00
2019,11,19,18,32,8.00
2019,11,19,18,33,8.10
2019,11,19,18,34,8.10
2019,11,19,18,35,8.20
2019,11,19,18,36,8.20
2019,11,19,18,37,8.20
2019,11,19,18,38,8.30
2019,11,19,18,39,8.30
2019,11,19,18,40,8.30
2019,11,19,18,41,8.30
2019,11,19,18,42,8.30
2019,11,19,18,43,8.40
2019,11,19,18,44,8.40
2019,11,19,18,45,8.40
2019,11,19,18,46,8.40
2019,11,19,18,47,8.40
2019,11,19,18,48,8.30
2019,11,19,18,49,8.30
2019,11,19,18,50,8.30
2019,11,19,18,51,8.30
2019,11,19,18,52,8.20
2019,11,19,18,53,8.20
2019,11,19,18,54,8.30
2019,11,19,18,55,8.30
2019,11,19,18,56,8.30
2019,11,19,18,57,8.30
2019,11,19,18,58,8.30
2019,11,19,18,59,8.30
2019,11,19,19,00,8.20
2019,11,19,19,01,8.20
2019,11,19,19,02,8.10
2019,11,19,19,03,8.10
2019,11,19,19,04,8.10
2019,11,19,19,05,8.10
2019,11,19,19,06,8.10
2019,11,19,19,07,8.10
2019,11,19,19,08,8.10
2019,11,19,19,09,8.10
2019,11,19,19,10,8.10
2019,11,19,19,11,8.10
2019,11,19,19,12,8.10
2019,11,19,19,13,8.00
2019,11,19,19,14,8.00
2019,11,19,19,15,7.90
2019,11,19,19,16,7.90
2019,11,19,19,17,7.80
2019,11,19,19,18,7.80
2019,11,19,19,19,7.70
2019,11,19,19,20,7.70
2019,11,19,19,21,7.60
2019,11,19,19,22,7.60
2019,11,19,19,23,7.60
2019,11,19,19,24,7.60
2019,11,19,19,25,7.50
2019,11,19,19,26,7.50
2019,11,19,19,27,7.50
2019,11,19,19,28,7.40
2019,11,19,19,29,7.40
2019,11,19,19,30,7.40
2019,11,19,19,31,7.30
2019,11,19,19,32,7.30
2019,11,19,19,33,7.30
2019,11,19,19,34,7.20
2019,11,19,19,35,7.20
2019,11,19,19,36,7.10
2019,11,19,19,37,7.10
2019,11,19,19,38,7.00
2019,11,19,19,39,7.00
2019,11,19,19,40,6.90
2019,11,19,19,41,6.90
2019,11,19,19,42,6.80
2019,11,19,19,43,6.80
2019,11,19,19,44,6.80
2019,11,19,19,45,6.70
2019,11,19,19,46,6.70
2019,11,19,19,47,6.70
2019,11,19,19,48,6.60
2019,11,19,19,49,6.60
2019,11,19,19,50,6.50
2019,11,19,19,51,6.50
2019,11,19,19,52,6.40
2019,11,19,19,53,6.40
2019,11,19,19,54,6.40
2019,11,19,19,55,6.40
2019,11,19,19,56,6.30
2019,11,19,19,57,6.30
2019,11,19,19,58,6.30
2019,11,19,19,59,6.30
2019,11,19,20,00,6.30
2019,11,19,20,01,6.20
2019,11,19,20,02,6.20
2019,11,19,20,03,6.20
2019,11,19,20,04,6.20
2019,11,19,20,05,6.10
2019,11,19,20,06,6.10
2019,11,19,20,07,6.10
2019,11,19,20,08,6.10
2019,11,19,20,09,6.10
2019,11,19,20,10,6.10
2019,11,19,20,11,6.00
2019,11,19,20,12,6.00
2019,11,19,20,13,5.90
2019,11,19,20,14,5.90
2019,11,19,20,15,5.90
2019,11,19,20,16,5.90
2019,11,19,20,17,5.80
2019,11,19,20,18,5.80
2019,11,19,20,19,5.80
2019,11,19,20,20,5.90
2019,11,19,20,21,5.90
2019,11,19,20,22,5.90
2019,11,19,20,23,6.00
2019,11,19,20,24,6.00
2019,11,19,20,25,6.00
2019,11,19,20,26,6.10
2019,11,19,20,27,6.10
2019,11,19,20,28,6.20
2019,11,19,20,29,6.20
2019,11,19,20,30,6.20
2019,11,19,20,31,6.20
2019,11,19,20,32,6.20
2019,11,19,20,33,6.20
2019,11,19,20,34,6.20
2019,11,19,20,35,6.20
2019,11,19,20,36,6.20
2019,11,19,20,37,6.20
2019,11,19,20,38,6.20
2019,11,19,20,39,6.20
2019,11,19,20,40,6.20
2019,11,19,20,41,6.20
2019,11,19,20,42,6.10
2019,11,19,20,43,6.10
2019,11,19,20,44,6.00
2019,11,19,20,45,5.90
2019,11,19,20,46,5.90
2019,11,19,20,47,5.90
2019,11,19,20,48,5.80
2019,11,19,20,49,5.80
2019,11,19,20,50,5.80
2019,11,19,20,51,5.80
2019,11,19,20,52,5.70
2019,11,19,20,53,5.70
2019,11,19,20,54,5.70
2019,11,19,20,55,5.60
2019,11,19,20,56,5.60
2019,11,19,20,57,5.50
2019,11,19,20,58,5.50
2019,11,19,20,59,5.40
2019,11,19,21,00,5.30
2019,11,19,21,01,5.30
2019,11,19,21,02,5.30
2019,11,19,21,03,5.20
2019,11,19,21,04,5.20
2019,11,19,21,05,5.20
2019,11,19,21,06,5.20
2019,11,19,21,07,5.10
2019,11,19,21,08,5.10
2019,11,19,21,09,5.00
2019,11,19,21,10,5.00
2019,11,19,21,11,5.00
2019,11,19,21,12,4.90
2019,11,19,21,13,4.90
2019,11,19,21,14,4.80
2019,11,19,21,15,4.80
2019,11,19,21,16,4.80
2019,11,19,21,17,4.80
2019,11,19,21,18,4.80
2019,11,19,21,19,4.80
2019,11,19,21,20,4.70
2019,11,19,21,21,4.70
2019,11,19,21,22,4.70
2019,11,19,21,23,4.70
2019,11,19,21,24,4.60
2019,11,19,21,25,4.60
2019,11,19,21,26,4.60
2019,11,19,21,27,4.60
2019,11,19,21,28,4.50
2019,11,19,21,29,4.50
2019,11,19,21,30,4.50
2019,11,19,21,31,4.40
2019,11,19,21,32,4.40
2019,11,19,21,33,4.40
2019,11,19,21,34,4.40
2019,11,19,21,35,4.40
2019,11,19,21,36,4.40
2019,11,19,21,37,4.40
2019,11,19,21,38,4.40
2019,11,19,21,39,4.40
2019,11,19,21,40,4.40
2019,11,19,21,41,4.40
2019,11,19,21,42,4.40
2019,11,19,21,43,4.40
2019,11,19,21,44,4.40
2019,11,19,21,45,4.40
2019,11,19,21,46,4.40
2019,11,19,21,47,4.30
2019,11,19,21,48,4.30
2019,11,19,21,49,4.30
2019,11,19,21,50,4.30
2019,11,19,21,51,4.30
2019,11,19,21,52,4.30
2019,11,19,21,53,4.30
2019,11,19,21,54,4.40
2019,11,19,21,55,4.40
2019,11,19,21,56,4.40
2019,11,19,21,57,4.40
2019,11,19,21,58,4.40
2019,11,19,21,59,4.40
2019,11,19,22,00,4.40
2019,11,19,22,01,4.40
2019,11,19,22,02,4.40
2019,11,19,22,03,4.40
2019,11,19,22,04,4.40
2019,11,19,22,05,4.40
2019,11,19,22,06,4.40
2019,11,19,22,07,4.40
2019,11,19,22,08,4.40
2019,11,19,22,09,4.40
2019,11,19,22,10,4.40
2019,11,19,22,11,4.40
2019,11,19,22,12,4.40
2019,11,19,22,13,4.40
2019,11,19,22,14,4.40
2019,11,19,22,15,4.40
2019,11,19,22,16,4.50
2019,11,19,22,17,4.50
2019,11,19,22,18,4.60
2019,11,19,22,19,4.60
2019,11,19,22,20,4.70
2019,11,19,22,21,4.70
2019,11,19,22,22,4.70
2019,11,19,22,23,4.70
2019,11,19,22,24,4.80
2019,11,19,22,25,4.80
2019,11,19,22,26,4.80
2019,11,19,22,27,4.80
2019,11,19,22,28,4.80
2019,11,19,22,29,4.80
2019,11,19,22,30,4.80
2019,11,19,22,31,4.80
2019,11,19,22,32,4.80
2019,11,19,22,33,4.80
2019,11,19,22,34,4.80
2019,11,19,22,35,4.80
2019,11,19,22,36,4.80
2019,11,19,22,37,4.80
2019,11,19,22,38,4.80
2019,11,19,22,39,4.80
2019,11,19,22,40,4.80
2019,11,19,22,41,4.80
2019,11,19,22,42,4.80
2019,11,19,22,43,4.80
2019,11,19,22,44,4.80
2019,11,19,22,45,4.80
2019,11,19,22,46,4.80
2019,11,19,22,47,4.80
2019,11,19,22,48,4.80
2019,11,19,22,49,4.80
2019,11,19,22,50,4.80
2019,11,19,22,51,4.80
2019,11,19,22,52,4.80
2019,11,19,22,53,4.90
2019,11,19,22,54,4.80
2019,11,19,22,55,4.80
2019,11,19,22,56,4.80
2019,11,19,22,57,4.80
2019,11,19,22,58,4.80
2019,11,19,22,59,4.80
2019,11,19,23,00,4.80
2019,11,19,23,01,4.70
2019,11,19,23,02,4.70
2019,11,19,23,03,4.70
2019,11,19,23,04,4.70
2019,11,19,23,05,4.60
2019,11,19,23,06,4.60
2019,11,19,23,07,4.50
2019,11,19,23,08,4.50
2019,11,19,23,09,4.40
2019,11,19,23,10,4.40
2019,11,19,23,11,4.30
2019,11,19,23,12,4.30
2019,11,19,23,13,4.30
2019,11,19,23,14,4.30
2019,11,19,23,15,4.20
2019,11,19,23,16,4.20
2019,11,19,23,17,4.20
2019,11,19,23,18,4.20
2019,11,19,23,19,4.20
2019,11,19,23,20,4.10
2019,11,19,23,21,4.10
2019,11,19,23,22,4.10
2019,11,19,23,23,4.10
2019,11,19,23,24,4.00
2019,11,19,23,25,4.00
2019,11,19,23,26,4.00
2019,11,19,23,27,4.00